Regional Weather Roundup
Issued by NWS Cleveland, OH

Home | Current Version | Previous Version | Graphics & Text | Print | Product List | Glossary On
Versions: 1 2 3 4 5 6 7 8 9 10 11 12 13 14 15 16 17 18 19 20 21 22 23 24 25 26 27 28 29 30 31 32 33 34 35 36 37 38 39 40 41 42 43 44 45 46 47 48 49 50
000
ASUS41 KCLE 061410
RWRCLE
OHIO REGIONAL WEATHER ROUNDUP
NATIONAL WEATHER SERVICE CLEVELAND, OH
1000 AM EDT FRI MAY 06 2016

NOTE: "FAIR" INDICATES FEW OR NO CLOUDS BELOW 12,000 FEET WITH NO
SIGNIFICANT WEATHER AND/OR OBSTRUCTIONS TO VISIBILITY.

OHZ001>008-015>018-024>027-034-035-043-044-061500-
   NORTHWEST OHIO

CITY           SKY/WX    TMP DP  RH WIND       PRES   REMARKS
DEFIANCE       SUNNY     58  43  57 NW3       29.99R
FINDLAY        SUNNY     61  37  41 N7        29.97R
TOLEDO EXPRESS SUNNY     60  39  45 N6        29.98R
TOLEDO EXEC    SUNNY     60  40  47 N8        29.98R
LIMA           SUNNY     57  40  52 N8        29.98R
$$

OHZ009>014-019>023-028>033-038-089-061500-
   NORTHEAST OHIO

CITY           SKY/WX    TMP DP  RH WIND       PRES   REMARKS
CLE-HOPKINS    SUNNY     56  43  61 N8        29.95R
CLE-LAKEFRONT  SUNNY     52  44  74 NW8       29.92R
CUY CO. ARPT   SUNNY     59  46  63 N6        29.92S
LORAIN-ELYRIA  SUNNY     55  42  61 N8        29.94R
ASHTABULA      SUNNY     55  41  59 N10G16    29.89S
AKRON-CANTON   MOSUNNY   57  42  57 N8        29.89R
WOOSTER        SUNNY     56  44  64 N14       29.91R
MANSFIELD      MOSUNNY   55  43  63 NW12      29.94R
YOUNGSTOWN     PTSUNNY   58  42  55 N8        29.86S
$$

OHZ042-051>053-060>062-070>072-077>081-061500-
  SOUTHWEST OHIO

CITY           SKY/WX    TMP DP  RH WIND       PRES   REMARKS
CINC-COVINGTON MOSUNNY   57  43  59 N8        29.98R
CINC-LUNKEN    SUNNY     59  44  57 N7        29.98S
HAMILTON       SUNNY     60  45  57 N8        29.99R
DAYTON         MOSUNNY   58  41  53 N9        29.99R
WRIGHT-PAT AFB SUNNY     57  46  66 N6        29.97R
DAYTON GENERAL SUNNY     58  41  53 N6        29.97R
WILMINGTON     SUNNY     58  43  57 N13       29.96R
$$

OHZ036-037-039>041-045>050-054>059-063>069-073>076-082>088-061500-
  CENTRAL AND SOUTHEAST OHIO

CITY           SKY/WX    TMP DP  RH WIND       PRES   REMARKS
COLUMBUS       MOSUNNY   57  41  55 N10       29.93R
OSU AIRPORT    SUNNY     58  41  53 N12       29.94R
BOLTON FIELD   SUNNY     57  41  54 N10       29.95R
RICKENBACK AFB SUNNY     57  41  54 N12       29.94R
NEWARK         SUNNY     62  40  44 NW7       29.91S
MARION         SUNNY     58  42  55 N10       29.96R
LANCASTER      SUNNY     60  44  55 N10       29.93R
ZANESVILLE     SUNNY     61  43  51 NW7       29.89R
NEW PHILLY     SUNNY     56  42  59 N8        29.89R
$$



USA.gov is the U.S. government's official web portal to all federal, state and local government web resources and services.